Time,TemperatureF,DewpointF,PressureIn,WindDirection,WindDirectionDegrees,WindSpeedMPH,WindSpeedGustMPH,Humidity,HourlyPrecipIn,Conditions,Clouds,dailyrainin,SoftwareType,DateUTC
2013-03-25 07:15:00,38.2,31.3,30.16,NNW,328,2.0,6.0,76,0.00,,,0.00,Wunderground v.1.15,2013-03-25 12:15:00,
2013-03-25 07:20:00,38.2,31.3,30.16,WNW,301,4.0,6.0,76,0.00,,,0.00,Wunderground v.1.15,2013-03-25 12:20:00,
2013-03-25 07:25:00,38.2,31.3,30.16,NNW,329,3.0,6.0,76,0.00,,,0.00,Wunderground v.1.15,2013-03-25 12:25:00,
2013-03-25 07:30:00,38.3,31.4,30.16,NNW,335,3.0,3.0,76,0.00,,,0.00,Wunderground v.1.15,2013-03-25 12:30:00,
2013-03-25 07:35:00,38.3,31.4,30.16,NW,310,3.0,3.0,76,0.00,,,0.00,Wunderground v.1.15,2013-03-25 12:35:00,
2013-03-25 07:40:00,38.3,31.4,30.17,NNW,338,3.0,3.0,76,0.00,,,0.00,Wunderground v.1.15,2013-03-25 12:40:00,
2013-03-25 07:45:00,38.4,31.5,30.17,WNW,293,3.0,3.0,76,0.00,,,0.00,Wunderground v.1.15,2013-03-25 12:45:00,
2013-03-25 07:50:00,38.5,31.6,30.17,NNW,335,3.0,3.0,76,0.00,,,0.00,Wunderground v.1.15,2013-03-25 12:50:00,
2013-03-25 07:55:00,38.8,31.6,30.17,NW,319,2.0,5.0,75,0.00,,,0.00,Wunderground v.1.15,2013-03-25 12:55:00,
2013-03-25 08:00:00,38.9,31.6,30.17,NNW,336,2.0,2.0,75,0.00,,,0.00,Wunderground v.1.15,2013-03-25 13:00:00,
2013-03-25 08:05:00,39.0,31.7,30.17,WNW,285,2.0,3.0,75,0.00,,,0.00,Wunderground v.1.15,2013-03-25 13:05:00,
2013-03-25 08:10:00,39.1,31.8,30.18,NNW,342,2.0,3.0,75,0.00,,,0.00,Wunderground v.1.15,2013-03-25 13:10:00,
2013-03-25 08:15:00,39.3,31.4,30.18,NW,326,3.0,3.0,73,0.00,,,0.00,Wunderground v.1.15,2013-03-25 13:15:00,
2013-03-25 08:20:00,39.4,31.1,30.18,ENE,76,4.0,4.0,72,0.00,,,0.00,Wunderground v.1.15,2013-03-25 13:20:00,
2013-03-25 08:25:00,39.6,31.0,30.18,WNW,290,5.0,8.0,71,0.00,,,0.00,Wunderground v.1.15,2013-03-25 13:25:00,
2013-03-25 08:30:00,39.7,31.4,30.18,North,5,6.0,6.0,72,0.00,,,0.00,Wunderground v.1.15,2013-03-25 13:30:00,
2013-03-25 08:35:00,40.1,31.8,30.19,NW,319,4.0,6.0,72,0.00,,,0.00,Wunderground v.1.15,2013-03-25 13:35:00,
2013-03-25 08:45:00,40.9,31.5,30.19,NW,305,3.0,3.0,69,0.00,,,0.00,Wunderground v.1.15,2013-03-25 13:45:00,
2013-03-25 08:50:00,40.8,31.4,30.19,NW,314,4.0,5.0,69,0.00,,,0.00,Wunderground v.1.15,2013-03-25 13:50:00,
2013-03-25 08:55:00,40.9,31.1,30.19,WNW,294,5.0,7.0,68,0.00,,,0.00,Wunderground v.1.15,2013-03-25 13:55:00,
2013-03-25 09:00:00,41.2,31.4,30.20,NW,310,4.0,4.0,68,0.00,,,0.00,Wunderground v.1.15,2013-03-25 14:00:00,
2013-03-25 09:05:00,41.5,31.4,30.20,NW,304,4.0,4.0,67,0.00,,,0.00,Wunderground v.1.15,2013-03-25 14:05:00,
2013-03-25 09:10:00,41.8,31.3,30.21,NNW,328,4.0,7.0,66,0.00,,,0.00,Wunderground v.1.15,2013-03-25 14:10:00,
2013-03-25 09:15:00,41.7,31.2,30.21,NW,318,5.0,7.0,66,0.00,,,0.00,Wunderground v.1.15,2013-03-25 14:15:00,
2013-03-25 09:20:00,42.1,31.6,30.21,NNW,340,4.0,4.0,66,0.00,,,0.00,Wunderground v.1.15,2013-03-25 14:20:00,
2013-03-25 09:25:00,42.6,31.7,30.21,NNE,19,3.0,4.0,65,0.00,,,0.00,Wunderground v.1.15,2013-03-25 14:25:00,
2013-03-25 09:30:00,42.8,30.7,30.21,North,354,3.0,6.0,62,0.00,,,0.00,Wunderground v.1.15,2013-03-25 14:30:00,
2013-03-25 09:35:00,43.2,31.1,30.21,ENE,65,4.0,7.0,62,0.00,,,0.00,Wunderground v.1.15,2013-03-25 14:35:00,
2013-03-25 09:40:00,43.3,29.9,30.21,NW,308,4.0,8.0,59,0.00,,,0.00,Wunderground v.1.15,2013-03-25 14:40:00,
2013-03-25 09:45:00,43.3,29.9,30.21,NW,314,6.0,9.0,59,0.00,,,0.00,Wunderground v.1.15,2013-03-25 14:45:00,
2013-03-25 09:50:00,43.7,29.9,30.22,NNW,342,5.0,5.0,58,0.00,,,0.00,Wunderground v.1.15,2013-03-25 14:50:00,
2013-03-25 09:55:00,44.1,30.3,30.22,NW,316,4.0,5.0,58,0.00,,,0.00,Wunderground v.1.15,2013-03-25 14:55:00,
2013-03-25 10:00:00,44.5,31.1,30.22,WNW,300,3.0,3.0,59,0.00,,,0.00,Wunderground v.1.15,2013-03-25 15:00:00,
2013-03-25 10:05:00,44.6,29.4,30.22,WNW,290,3.0,3.0,55,0.00,,,0.00,Wunderground v.1.15,2013-03-25 15:05:00,
2013-03-25 10:10:00,45.0,30.7,30.22,WNW,295,3.0,3.0,57,0.00,,,0.00,Wunderground v.1.15,2013-03-25 15:10:00,
2013-03-25 10:20:00,45.1,29.9,30.23,NNW,347,4.0,4.0,55,0.00,,,0.00,Wunderground v.1.15,2013-03-25 15:20:00,
2013-03-25 10:25:00,45.3,29.6,30.23,NNE,22,4.0,4.0,54,0.00,,,0.00,Wunderground v.1.15,2013-03-25 15:25:00,
2013-03-25 10:30:00,45.6,30.3,30.23,NNW,340,4.0,4.0,55,0.00,,,0.00,Wunderground v.1.15,2013-03-25 15:30:00,
2013-03-25 10:35:00,45.7,27.6,30.24,WNW,300,4.0,4.0,49,0.00,,,0.00,Wunderground v.1.15,2013-03-25 15:35:00,
2013-03-25 10:40:00,45.9,28.3,30.24,WNW,298,4.0,4.0,50,0.00,,,0.00,Wunderground v.1.15,2013-03-25 15:40:00,
2013-03-25 10:45:00,46.3,28.7,30.24,WNW,300,3.0,4.0,50,0.00,,,0.00,Wunderground v.1.15,2013-03-25 15:45:00,
2013-03-25 10:50:00,46.7,28.0,30.24,NNW,330,4.0,4.0,48,0.00,,,0.00,Wunderground v.1.15,2013-03-25 15:50:00,
2013-03-25 10:55:00,47.0,26.2,30.24,NW,322,5.0,7.0,44,0.00,,,0.00,Wunderground v.1.15,2013-03-25 15:55:00,
2013-03-25 11:00:00,46.9,26.1,30.24,NW,309,6.0,6.0,44,0.00,,,0.00,Wunderground v.1.15,2013-03-25 16:00:00,
2013-03-25 11:05:00,47.7,28.4,30.24,NNW,328,5.0,6.0,47,0.00,,,0.00,Wunderground v.1.15,2013-03-25 16:05:00,
2013-03-25 11:10:00,48.0,26.5,30.24,NNW,342,4.0,4.0,43,0.00,,,0.00,Wunderground v.1.15,2013-03-25 16:10:00,
2013-03-25 11:15:00,48.5,26.4,30.24,NW,309,5.0,6.0,42,0.00,,,0.00,Wunderground v.1.15,2013-03-25 16:15:00,
2013-03-25 11:20:00,48.6,27.6,30.24,NNE,23,4.0,4.0,44,0.00,,,0.00,Wunderground v.1.15,2013-03-25 16:20:00,
2013-03-25 11:25:00,49.3,27.2,30.24,WSW,248,4.0,4.0,42,0.00,,,0.00,Wunderground v.1.15,2013-03-25 16:25:00,
2013-03-25 11:30:00,49.8,26.4,30.24,NW,315,4.0,5.0,40,0.00,,,0.00,Wunderground v.1.15,2013-03-25 16:30:00,
2013-03-25 11:35:00,49.9,25.9,30.23,NNE,25,5.0,5.0,39,0.00,,,0.00,Wunderground v.1.15,2013-03-25 16:35:00,
2013-03-25 11:40:00,50.0,26.0,30.23,WNW,295,5.0,5.0,39,0.00,,,0.00,Wunderground v.1.15,2013-03-25 16:40:00,
2013-03-25 11:45:00,50.2,25.5,30.23,WNW,302,5.0,5.0,38,0.00,,,0.00,Wunderground v.1.15,2013-03-25 16:45:00,
2013-03-25 11:50:00,50.8,26.1,30.23,North,4,5.0,5.0,38,0.00,,,0.00,Wunderground v.1.15,2013-03-25 16:50:00,
2013-03-25 12:00:00,50.8,26.1,30.22,WNW,302,6.0,6.0,38,0.00,,,0.00,Wunderground v.1.15,2013-03-25 17:00:00,
2013-03-25 12:05:00,51.0,24.3,30.22,NNW,332,7.0,7.0,35,0.00,,,0.00,Wunderground v.1.15,2013-03-25 17:05:00,
2013-03-25 12:10:00,51.4,24.6,30.21,NNW,328,6.0,6.0,35,0.00,,,0.00,Wunderground v.1.15,2013-03-25 17:10:00,
2013-03-25 12:15:00,51.7,24.2,30.21,NW,312,5.0,9.0,34,0.00,,,0.00,Wunderground v.1.15,2013-03-25 17:15:00,
2013-03-25 12:20:00,51.6,24.8,30.21,WNW,287,6.0,6.0,35,0.00,,,0.00,Wunderground v.1.15,2013-03-25 17:20:00,
2013-03-25 12:30:00,52.2,25.3,30.20,NW,314,6.0,6.0,35,0.00,,,0.00,Wunderground v.1.15,2013-03-25 17:30:00,
2013-03-25 12:35:00,53.1,27.5,30.20,NNW,330,4.0,7.0,37,0.00,,,0.00,Wunderground v.1.15,2013-03-25 17:35:00,
2013-03-25 12:40:00,53.4,25.0,30.20,WNW,298,4.0,5.0,33,0.00,,,0.00,Wunderground v.1.15,2013-03-25 17:40:00,
2013-03-25 12:45:00,53.6,24.4,30.20,NW,321,5.0,10.0,32,0.00,,,0.00,Wunderground v.1.15,2013-03-25 17:45:00,
2013-03-25 12:50:00,53.8,24.6,30.20,NNW,340,6.0,6.0,32,0.00,,,0.00,Wunderground v.1.15,2013-03-25 17:50:00,
2013-03-25 12:55:00,53.8,25.3,30.20,NNW,334,5.0,9.0,33,0.00,,,0.00,Wunderground v.1.15,2013-03-25 17:55:00,
2013-03-25 13:05:00,54.8,23.9,30.20,WNW,295,5.0,6.0,30,0.00,,,0.00,Wunderground v.1.15,2013-03-25 18:05:00,
2013-03-25 13:10:00,54.6,26.0,30.19,WNW,282,5.0,5.0,33,0.00,,,0.00,Wunderground v.1.15,2013-03-25 18:10:00,
2013-03-25 13:15:00,55.2,25.1,30.19,NW,312,4.0,9.0,31,0.00,,,0.00,Wunderground v.1.15,2013-03-25 18:15:00,
2013-03-25 13:20:00,55.4,23.6,30.19,NW,304,4.0,4.0,29,0.00,,,0.00,Wunderground v.1.15,2013-03-25 18:20:00,
2013-03-25 13:25:00,55.5,22.9,30.19,WNW,300,5.0,12.0,28,0.00,,,0.00,Wunderground v.1.15,2013-03-25 18:25:00,
2013-03-25 13:35:00,55.9,23.2,30.18,WNW,290,5.0,15.0,28,0.00,,,0.00,Wunderground v.1.15,2013-03-25 18:35:00,
2013-03-25 13:40:00,55.3,22.7,30.18,West,260,6.0,6.0,28,0.00,,,0.00,Wunderground v.1.15,2013-03-25 18:40:00,
2013-03-25 13:45:00,55.5,22.9,30.18,WNW,286,6.0,6.0,28,0.00,,,0.00,Wunderground v.1.15,2013-03-25 18:45:00,
2013-03-25 13:50:00,55.6,23.0,30.17,WNW,300,6.0,6.0,28,0.00,,,0.00,Wunderground v.1.15,2013-03-25 18:50:00,
2013-03-25 13:55:00,56.1,24.2,30.17,WNW,292,6.0,6.0,29,0.00,,,0.00,Wunderground v.1.15,2013-03-25 18:55:00,
2013-03-25 14:00:00,56.1,24.2,30.17,WNW,294,6.0,8.0,29,0.00,,,0.00,Wunderground v.1.15,2013-03-25 19:00:00,
2013-03-25 14:05:00,56.5,22.0,30.16,WNW,300,6.0,12.0,26,0.00,,,0.00,Wunderground v.1.15,2013-03-25 19:05:00,
2013-03-25 14:10:00,56.5,22.0,30.16,NW,308,6.0,6.0,26,0.00,,,0.00,Wunderground v.1.15,2013-03-25 19:10:00,
2013-03-25 14:15:00,56.8,22.2,30.16,WNW,294,5.0,6.0,26,0.00,,,0.00,Wunderground v.1.15,2013-03-25 19:15:00,
2013-03-25 14:20:00,57.0,23.3,30.15,WNW,300,5.0,5.0,27,0.00,,,0.00,Wunderground v.1.15,2013-03-25 19:20:00,
2013-03-25 14:25:00,57.5,22.8,30.15,WNW,298,5.0,7.0,26,0.00,,,0.00,Wunderground v.1.15,2013-03-25 19:25:00,
2013-03-25 14:30:00,57.3,22.7,30.15,WNW,288,6.0,7.0,26,0.00,,,0.00,Wunderground v.1.15,2013-03-25 19:30:00,
2013-03-25 14:35:00,57.1,23.4,30.15,WNW,295,6.0,10.0,27,0.00,,,0.00,Wunderground v.1.15,2013-03-25 19:35:00,
2013-03-25 14:40:00,57.0,23.3,30.14,NW,305,6.0,6.0,27,0.00,,,0.00,Wunderground v.1.15,2013-03-25 19:40:00,
2013-03-25 14:45:00,57.5,24.6,30.14,NW,314,5.0,13.0,28,0.00,,,0.00,Wunderground v.1.15,2013-03-25 19:45:00,
2013-03-25 14:50:00,57.1,23.4,30.14,WNW,298,5.0,5.0,27,0.00,,,0.00,Wunderground v.1.15,2013-03-25 19:50:00,
2013-03-25 14:55:00,57.7,26.4,30.14,West,279,5.0,5.0,30,0.00,,,0.00,Wunderground v.1.15,2013-03-25 19:55:00,
2013-03-25 15:00:00,57.7,24.8,30.14,NW,314,4.0,5.0,28,0.00,,,0.00,Wunderground v.1.15,2013-03-25 20:00:00,
2013-03-25 15:05:00,57.7,24.8,30.14,WNW,295,5.0,7.0,28,0.00,,,0.00,Wunderground v.1.15,2013-03-25 20:05:00,
2013-03-25 15:10:00,57.6,24.7,30.14,North,352,6.0,6.0,28,0.00,,,0.00,Wunderground v.1.15,2013-03-25 20:10:00,
2013-03-25 15:15:00,57.6,25.5,30.14,WNW,283,6.0,9.0,29,0.00,,,0.00,Wunderground v.1.15,2013-03-25 20:15:00,
2013-03-25 15:20:00,57.2,24.3,30.14,WNW,298,6.0,9.0,28,0.00,,,0.00,Wunderground v.1.15,2013-03-25 20:20:00,
2013-03-25 15:25:00,56.8,24.0,30.13,WNW,294,7.0,9.0,28,0.00,,,0.00,Wunderground v.1.15,2013-03-25 20:25:00,
2013-03-25 15:30:00,56.9,26.5,30.13,NW,309,6.0,6.0,31,0.00,,,0.00,Wunderground v.1.15,2013-03-25 20:30:00,
2013-03-25 15:35:00,57.2,24.3,30.13,NW,312,5.0,6.0,28,0.00,,,0.00,Wunderground v.1.15,2013-03-25 20:35:00,
2013-03-25 15:40:00,56.7,23.9,30.13,NW,326,6.0,6.0,28,0.00,,,0.00,Wunderground v.1.15,2013-03-25 20:40:00,
2013-03-25 15:45:00,56.7,24.8,30.13,North,11,6.0,6.0,29,0.00,,,0.00,Wunderground v.1.15,2013-03-25 20:45:00,
2013-03-25 15:50:00,57.2,25.2,30.13,WNW,300,6.0,9.0,29,0.00,,,0.00,Wunderground v.1.15,2013-03-25 20:50:00,
2013-03-25 15:55:00,57.1,25.1,30.13,NW,309,5.0,9.0,29,0.00,,,0.00,Wunderground v.1.15,2013-03-25 20:55:00,
2013-03-25 16:00:00,57.0,25.0,30.13,WNW,285,6.0,6.0,29,0.00,,,0.00,Wunderground v.1.15,2013-03-25 21:00:00,
2013-03-25 16:05:00,57.5,26.3,30.13,WNW,285,5.0,6.0,30,0.00,,,0.00,Wunderground v.1.15,2013-03-25 21:05:00,
2013-03-25 16:10:00,57.3,24.4,30.13,West,263,5.0,5.0,28,0.00,,,0.00,Wunderground v.1.15,2013-03-25 21:10:00,
2013-03-25 16:15:00,57.0,24.2,30.13,WNW,290,5.0,7.0,28,0.00,,,0.00,Wunderground v.1.15,2013-03-25 21:15:00,
2013-03-25 16:20:00,56.9,24.9,30.13,WNW,298,5.0,9.0,29,0.00,,,0.00,Wunderground v.1.15,2013-03-25 21:20:00,
2013-03-25 16:25:00,56.8,24.8,30.13,West,280,6.0,9.0,29,0.00,,,0.00,Wunderground v.1.15,2013-03-25 21:25:00,
2013-03-25 16:30:00,57.1,25.9,30.13,WNW,290,6.0,6.0,30,0.00,,,0.00,Wunderground v.1.15,2013-03-25 21:30:00,
2013-03-25 16:35:00,57.4,24.5,30.13,WNW,301,5.0,7.0,28,0.00,,,0.00,Wunderground v.1.15,2013-03-25 21:35:00,
2013-03-25 16:40:00,57.4,24.5,30.13,WNW,285,5.0,7.0,28,0.00,,,0.00,Wunderground v.1.15,2013-03-25 21:40:00,
2013-03-25 19:25:00,54.6,26.8,30.15,WNW,287,2.0,2.0,34,0.00,,,0.00,Wunderground v.1.15,2013-03-26 00:25:00,
2013-03-25 19:30:00,54.5,27.4,30.15,WNW,285,1.0,2.0,35,0.00,,,0.00,Wunderground v.1.15,2013-03-26 00:30:00,
2013-03-25 19:35:00,54.3,27.9,30.15,WNW,291,1.0,1.0,36,0.00,,,0.00,Wunderground v.1.15,2013-03-26 00:35:00,
2013-03-25 19:40:00,53.9,28.2,30.16,WNW,291,0.0,2.0,37,0.00,,,0.00,Wunderground v.1.15,2013-03-26 00:40:00,
2013-03-25 19:45:00,53.4,29.7,30.16,WNW,290,0.0,2.0,40,0.00,,,0.00,Wunderground v.1.15,2013-03-26 00:45:00,
2013-03-25 19:50:00,52.8,30.3,30.16,WNW,291,0.0,2.0,42,0.00,,,0.00,Wunderground v.1.15,2013-03-26 00:50:00,
2013-03-25 19:55:00,52.1,30.8,30.16,WNW,290,0.0,2.0,44,0.00,,,0.00,Wunderground v.1.15,2013-03-26 00:55:00,
2013-03-25 20:00:00,51.4,29.1,30.16,NW,308,0.0,2.0,42,0.00,,,0.00,Wunderground v.1.15,2013-03-26 01:00:00,
2013-03-25 20:05:00,51.2,29.4,30.17,WNW,293,0.0,2.0,43,0.00,,,0.00,Wunderground v.1.15,2013-03-26 01:05:00,
2013-03-25 20:10:00,51.4,29.1,30.17,West,281,1.0,2.0,42,0.00,,,0.00,Wunderground v.1.15,2013-03-26 01:10:00,
2013-03-25 20:15:00,51.6,29.2,30.17,WNW,288,1.0,2.0,42,0.00,,,0.00,Wunderground v.1.15,2013-03-26 01:15:00,
2013-03-25 20:19:00,51.7,28.7,30.17,WNW,290,1.0,2.0,41,0.00,,,0.00,Wunderground v.1.15,2013-03-26 01:19:00,
2013-03-25 20:24:00,51.8,28.8,30.17,WNW,290,0.0,2.0,41,0.00,,,0.00,Wunderground v.1.15,2013-03-26 01:24:00,
2013-03-25 20:29:00,51.7,28.7,30.18,WNW,290,0.0,2.0,41,0.00,,,0.00,Wunderground v.1.15,2013-03-26 01:29:00,
2013-03-25 20:35:00,51.7,29.9,30.18,WNW,289,0.0,2.0,43,0.00,,,0.00,Wunderground v.1.15,2013-03-26 01:35:00,
2013-03-25 20:40:00,51.4,29.6,30.18,WNW,290,0.0,2.0,43,0.00,,,0.00,Wunderground v.1.15,2013-03-26 01:40:00,
2013-03-25 20:45:00,51.0,29.3,30.19,WNW,290,0.0,2.0,43,0.00,,,0.00,Wunderground v.1.15,2013-03-26 01:45:00,
2013-03-25 20:50:00,50.8,28.5,30.19,WNW,290,0.0,2.0,42,0.00,,,0.00,Wunderground v.1.15,2013-03-26 01:50:00,
2013-03-25 20:55:00,50.6,28.9,30.19,WNW,290,0.0,2.0,43,0.00,,,0.00,Wunderground v.1.15,2013-03-26 01:55:00,
2013-03-25 21:00:00,50.5,28.2,30.19,WNW,290,0.0,2.0,42,0.00,,,0.00,Wunderground v.1.15,2013-03-26 02:00:00,
2013-03-25 21:05:00,50.4,30.9,30.19,WNW,290,0.0,2.0,47,0.00,,,0.00,Wunderground v.1.15,2013-03-26 02:05:00,
2013-03-25 21:10:00,50.1,29.6,30.20,WNW,290,0.0,2.0,45,0.00,,,0.00,Wunderground v.1.15,2013-03-26 02:10:00,
2013-03-25 21:15:00,50.0,29.5,30.20,WNW,290,0.0,2.0,45,0.00,,,0.00,Wunderground v.1.15,2013-03-26 02:15:00,
2013-03-25 21:20:00,49.8,29.3,30.20,WNW,291,0.0,2.0,45,0.00,,,0.00,Wunderground v.1.15,2013-03-26 02:20:00,
2013-03-25 21:25:00,49.7,30.8,30.20,WNW,290,0.0,2.0,48,0.00,,,0.00,Wunderground v.1.15,2013-03-26 02:25:00,
2013-03-25 21:30:00,49.5,28.5,30.20,NW,309,0.0,2.0,44,0.00,,,0.00,Wunderground v.1.15,2013-03-26 02:30:00,
2013-03-25 21:35:00,50.0,27.8,30.21,WNW,283,1.0,2.0,42,0.00,,,0.00,Wunderground v.1.15,2013-03-26 02:35:00,
2013-03-25 21:40:00,50.8,26.1,30.21,WNW,293,2.0,3.0,38,0.00,,,0.00,Wunderground v.1.15,2013-03-26 02:40:00,
2013-03-25 21:45:00,51.2,26.4,30.21,WNW,298,2.0,3.0,38,0.00,,,0.00,Wunderground v.1.15,2013-03-26 02:45:00,
2013-03-25 21:50:00,51.6,26.1,30.22,WNW,300,2.0,3.0,37,0.00,,,0.00,Wunderground v.1.15,2013-03-26 02:50:00,
2013-03-25 21:55:00,51.6,25.5,30.22,WNW,300,2.0,3.0,36,0.00,,,0.00,Wunderground v.1.15,2013-03-26 02:55:00,
2013-03-25 22:00:00,51.6,26.1,30.22,WNW,290,1.0,2.0,37,0.00,,,0.00,Wunderground v.1.15,2013-03-26 03:00:00,
2013-03-25 22:05:00,51.6,25.5,30.22,NW,319,2.0,2.0,36,0.00,,,0.00,Wunderground v.1.15,2013-03-26 03:05:00,
2013-03-25 22:10:00,51.4,26.0,30.22,WNW,291,2.0,3.0,37,0.00,,,0.00,Wunderground v.1.15,2013-03-26 03:10:00,
2013-03-25 22:15:00,51.2,25.8,30.22,NW,308,2.0,3.0,37,0.00,,,0.00,Wunderground v.1.15,2013-03-26 03:15:00,
2013-03-25 22:20:00,51.2,25.1,30.23,WNW,288,2.0,2.0,36,0.00,,,0.00,Wunderground v.1.15,2013-03-26 03:20:00,
2013-03-25 22:25:00,51.1,26.3,30.23,WNW,302,1.0,3.0,38,0.00,,,0.00,Wunderground v.1.15,2013-03-26 03:25:00,
2013-03-25 22:30:00,51.0,26.3,30.23,NW,305,1.0,2.0,38,0.00,,,0.00,Wunderground v.1.15,2013-03-26 03:30:00,
2013-03-25 22:35:00,50.8,26.1,30.24,NW,312,1.0,2.0,38,0.00,,,0.00,Wunderground v.1.15,2013-03-26 03:35:00,
2013-03-25 22:45:00,50.4,25.7,30.24,NW,314,1.0,2.0,38,0.00,,,0.00,Wunderground v.1.15,2013-03-26 03:45:00,
2013-03-25 22:50:00,50.5,25.8,30.24,NW,305,2.0,2.0,38,0.00,,,0.00,Wunderground v.1.15,2013-03-26 03:50:00,
2013-03-25 22:55:00,50.5,25.8,30.25,WNW,302,2.0,2.0,38,0.00,,,0.00,Wunderground v.1.15,2013-03-26 03:55:00,
2013-03-25 23:00:00,50.3,26.3,30.25,NNW,336,1.0,2.0,39,0.00,,,0.00,Wunderground v.1.15,2013-03-26 04:00:00,
2013-03-25 23:05:00,50.2,26.8,30.25,WNW,292,2.0,3.0,40,0.00,,,0.00,Wunderground v.1.15,2013-03-26 04:05:00,
2013-03-25 23:10:00,50.0,26.0,30.25,NW,316,2.0,3.0,39,0.00,,,0.00,Wunderground v.1.15,2013-03-26 04:10:00,
2013-03-25 23:15:00,50.1,26.7,30.25,NW,314,2.0,3.0,40,0.00,,,0.00,Wunderground v.1.15,2013-03-26 04:15:00,
2013-03-25 23:20:00,50.0,26.0,30.25,NNW,328,2.0,3.0,39,0.00,,,0.00,Wunderground v.1.15,2013-03-26 04:20:00,
2013-03-25 23:55:00,48.9,25.6,30.27,WNW,301,2.0,2.0,40,0.00,,,0.00,Wunderground v.1.15,2013-03-26 04:55:00,